This demonstration page uses our WeatherBlox Daily Observations layout. Learn more.

Left ArrowRight Arrow

39.01783, -85.05884

Hourly Observations for February 14, 2017

Temp ( °F °C ) Dew Point ( °F °C ) Humidity (%) Winds ( mph kmh ) Pressure ( in mb ) Visibility ( mi km ) Precip ( " mm )
12:52 am 00:52 Cloudy 37 2.8 22 -5.6 54 54 SW 3 6 30.05 1018 10 16 0.00 0.00
1:52 am 01:52 Cloudy 36 2.2 23 -5 59 59 SSW 5 7 30.04 1017 10 16 0.00 0.00
2:52 am 02:52 Cloudy 38 3.3 22 -5.6 52 52 SSW 5 7 30.02 1017 10 16 0.00 0.00
3:52 am 03:52 Cloudy 38 3.3 22 -5.6 52 52 Calm 30.00 1016 10 16 0.00 0.00
4:52 am 04:52 Cloudy with Light Rain 39 3.9 26 -3.3 60 60 W 15 24 30.01 1016 10 16 0.00 0.03
5:52 am 05:52 Cloudy with Light Rain 36 2.2 31 -0.6 82 82 S 8 13 29.98 1015 10 16 0.01 0.25
6:52 am 06:52 Cloudy 37 2.8 28 -2.2 70 70 SSW 8 13 29.98 1015 10 16 0.00 0.03
7:52 am 07:52 Cloudy 37 2.8 30 -1.1 76 76 SW 7 11 29.99 1016 10 16 0.00 0.00
8:24 am 08:24 Cloudy 37 3 30 -1 75 75 W 7 11 30.03 1017 10 16 0.00 0.00
8:52 am 08:52 Cloudy 38 3.3 30 -1.1 73 73 SW 7 11 30.00 1016 10 16 0.00 0.00
9:52 am 09:52 Cloudy 40 4.4 27 -2.8 60 60 SSW 13 20 29.96 1015 10 16 0.00 0.00
10:10 am 10:10 Cloudy 43 6 27 -3 53 53 SSW 12 19 29.97 1015 10 16 0.00 0.00
10:52 am 10:52 Cloudy 42 5.6 26 -3.3 53 53 SSW 9 15 29.93 1014 10 16 0.00 0.00
11:12 am 11:12 Cloudy 45 7 28 -2 53 53 SW 9 15 29.94 1014 10 16 0.00 0.00
11:52 am 11:52 Mostly Cloudy 46 7.8 29 -1.7 51 51 WSW 14 22 29.92 1013 10 16 0.00 0.00
12:31 pm 12:31 Mostly Cloudy 48 8.9 32 0 54 54 SW 16 26 29.88 1012 10 16 0.00 0.00
12:52 pm 12:52 Mostly Cloudy 48 8.9 32 0 54 54 WSW 12 19 29.89 1012 10 16 0.00 0.00
1:52 pm 13:52 Mostly Cloudy 52 11.1 30 -1.1 43 43 WSW 12 19 29.86 1011 10 16 0.00 0.00
2:52 pm 14:52 Cloudy 51 10.6 27 -2.8 39 39 WSW 13 20 29.84 1011 10 16 0.00 0.00
3:52 pm 15:52 Cloudy 51 10.6 27 -2.8 39 39 WSW 14 22 29.82 1010 10 16 0.00 0.00
4:52 pm 16:52 Cloudy 51 10.6 28 -2.2 41 41 SW 9 15 29.80 1009 10 16 0.00 0.00
5:52 pm 17:52 Cloudy 49 9.4 27 -2.8 43 43 SW 7 11 29.80 1009 10 16 0.00 0.00
6:52 pm 18:52 Cloudy 48 8.9 27 -2.8 44 44 SW 7 11 29.78 1008 10 16 0.00 0.00
7:52 pm 19:52 Cloudy 47 8.3 27 -2.8 46 46 WSW 7 11 29.78 1008 10 16 0.00 0.00
8:52 pm 20:52 Cloudy 46 7.8 28 -2.2 50 50 SW 10 17 29.76 1008 10 16 0.00 0.00
9:52 pm 21:52 Cloudy 46 7.8 30 -1.1 54 54 WSW 12 19 29.75 1007 10 16 0.00 0.00
10:52 pm 22:52 Cloudy 45 7.2 32 0 61 61 WSW 13 20 29.74 1007 10 16 0.00 0.00
11:52 pm 23:52 Cloudy 44 6.7 33 0.6 65 65 WSW 9 15 29.72 1007 10 16 0.00 0.00

Powered by AerisWeather